TimeCST,TemperatureF,Dew PointF,Humidity,Sea Level PressureIn,VisibilityMPH,Wind Direction,Wind SpeedMPH,Gust SpeedMPH,PrecipitationIn,Events,Conditions,WindDirDegrees,DateUTC
12:15 AM,33.8,21.2,60,29.87,10.0,NW,9.2,-,N/A,,Clear,310,2014-01-16 06:15:00
12:35 AM,32.0,21.2,64,29.87,10.0,WNW,9.2,-,N/A,,Clear,300,2014-01-16 06:35:00
12:55 AM,33.8,24.8,70,29.87,10.0,WNW,9.2,-,N/A,,Partly Cloudy,290,2014-01-16 06:55:00
1:15 AM,33.8,23.0,65,29.88,10.0,West,9.2,-,N/A,,Clear,280,2014-01-16 07:15:00
1:35 AM,35.6,23.0,60,29.88,10.0,West,11.5,-,N/A,,Clear,280,2014-01-16 07:35:00
1:55 AM,35.6,23.0,60,29.89,10.0,WNW,11.5,-,N/A,,Clear,290,2014-01-16 07:55:00
2:15 AM,37.4,23.0,56,29.90,10.0,WNW,12.7,-,N/A,,Scattered Clouds,290,2014-01-16 08:15:00
2:35 AM,39.2,24.8,56,29.89,10.0,NW,21.9,32.2,N/A,,Overcast,320,2014-01-16 08:35:00
2:55 AM,42.8,24.8,49,29.88,10.0,NW,20.7,31.1,N/A,,Overcast,310,2014-01-16 08:55:00
3:15 AM,42.8,24.8,49,29.88,10.0,NW,21.9,29.9,N/A,,Overcast,310,2014-01-16 09:15:00
3:35 AM,42.8,24.8,49,29.88,10.0,NW,24.2,35.7,N/A,,Mostly Cloudy,320,2014-01-16 09:35:00
3:55 AM,42.8,21.2,42,29.88,10.0,NW,24.2,36.8,N/A,,Clear,320,2014-01-16 09:55:00
4:15 AM,42.8,19.4,39,29.88,10.0,NW,25.3,39.1,N/A,,Clear,320,2014-01-16 10:15:00
4:35 AM,41.0,21.2,45,29.89,10.0,NW,23.0,36.8,N/A,,Clear,320,2014-01-16 10:35:00
4:55 AM,41.0,21.2,45,29.90,10.0,NW,33.4,47.2,N/A,,Scattered Clouds,320,2014-01-16 10:55:00
5:15 AM,41.0,19.4,42,29.91,10.0,NW,27.6,39.1,N/A,,Scattered Clouds,310,2014-01-16 11:15:00
5:35 AM,39.2,19.4,45,29.92,10.0,NW,27.6,41.4,N/A,,Partly Cloudy,320,2014-01-16 11:35:00
5:55 AM,37.4,17.6,45,29.92,10.0,NW,29.9,39.1,N/A,,Clear,320,2014-01-16 11:55:00
6:15 AM,37.4,17.6,45,29.93,10.0,NW,25.3,39.1,N/A,,Clear,310,2014-01-16 12:15:00
6:35 AM,37.4,17.6,45,29.94,10.0,NW,20.7,34.5,N/A,,Clear,310,2014-01-16 12:35:00
6:55 AM,37.4,17.6,45,29.94,10.0,NW,25.3,32.2,N/A,,Clear,310,2014-01-16 12:55:00
7:15 AM,37.4,17.6,45,29.93,10.0,NW,28.8,38.0,N/A,,Clear,310,2014-01-16 13:15:00
7:35 AM,37.4,15.8,41,29.94,10.0,NW,24.2,33.4,N/A,,Clear,310,2014-01-16 13:35:00
7:55 AM,35.6,15.8,44,29.94,10.0,NW,21.9,31.1,N/A,,Clear,310,2014-01-16 13:55:00
8:15 AM,35.6,15.8,44,29.94,10.0,NW,20.7,34.5,N/A,,Clear,310,2014-01-16 14:15:00
8:35 AM,35.6,15.8,44,29.95,10.0,WNW,21.9,26.5,N/A,,Clear,300,2014-01-16 14:35:00
8:55 AM,37.4,17.6,45,29.95,10.0,WNW,23.0,31.1,N/A,,Clear,300,2014-01-16 14:55:00
9:15 AM,37.4,17.6,45,29.96,10.0,WNW,18.4,27.6,N/A,,Clear,290,2014-01-16 15:15:00
9:35 AM,37.4,19.4,48,29.96,10.0,WNW,21.9,28.8,N/A,,Clear,290,2014-01-16 15:35:00
9:55 AM,39.2,21.2,49,29.96,10.0,WNW,29.9,33.4,N/A,,Clear,300,2014-01-16 15:55:00
10:15 AM,41.0,19.4,42,29.96,10.0,NW,28.8,41.4,N/A,,Clear,310,2014-01-16 16:15:00
10:35 AM,42.8,17.6,36,29.96,9.0,NW,31.1,41.4,N/A,,Clear,310,2014-01-16 16:35:00
10:55 AM,42.8,15.8,34,29.95,9.0,NW,34.5,42.6,N/A,,Clear,320,2014-01-16 16:55:00
11:15 AM,42.8,15.8,34,29.95,5.0,NW,39.1,49.5,N/A,,Partly Cloudy,310,2014-01-16 17:15:00
11:35 AM,44.6,14.0,29,29.94,2.5,NW,35.7,54.1,N/A,,Scattered Clouds,310,2014-01-16 17:35:00
11:55 AM,44.6,12.2,27,29.94,4.0,NW,32.2,44.9,N/A,,Scattered Clouds,310,2014-01-16 17:55:00
12:15 PM,44.6,12.2,27,29.94,2.5,NW,34.5,50.6,N/A,,Mostly Cloudy,310,2014-01-16 18:15:00
12:35 PM,44.6,12.2,27,29.93,3.0,NW,41.4,54.1,N/A,,Mostly Cloudy,320,2014-01-16 18:35:00
12:55 PM,44.6,10.4,25,29.93,2.0,NW,36.8,50.6,N/A,,Overcast,310,2014-01-16 18:55:00
1:15 PM,44.6,12.2,27,29.94,5.0,NNW,34.5,44.9,N/A,,Overcast,330,2014-01-16 19:15:00
1:35 PM,42.8,12.2,29,29.95,2.0,NNW,33.4,56.4,N/A,,Overcast,330,2014-01-16 19:35:00
1:55 PM,42.8,12.2,29,29.95,3.0,NW,36.8,61.0,N/A,,Mostly Cloudy,320,2014-01-16 19:55:00
2:15 PM,42.8,12.2,29,29.96,8.0,NNW,32.2,41.4,N/A,,Overcast,330,2014-01-16 20:15:00
2:35 PM,41.0,12.2,31,29.97,10.0,NNW,35.7,44.9,N/A,,Scattered Clouds,330,2014-01-16 20:35:00
2:55 PM,39.2,12.2,33,29.98,10.0,NNW,33.4,47.2,N/A,,Mostly Cloudy,330,2014-01-16 20:55:00
3:15 PM,39.2,12.2,33,29.98,10.0,NW,29.9,43.7,N/A,,Mostly Cloudy,310,2014-01-16 21:15:00
3:35 PM,39.2,12.2,33,30.00,10.0,NW,27.6,47.2,N/A,,Mostly Cloudy,310,2014-01-16 21:35:00
3:55 PM,39.2,10.4,31,30.00,10.0,NW,32.2,46.0,N/A,,Mostly Cloudy,320,2014-01-16 21:55:00
4:15 PM,39.2,12.2,33,30.01,10.0,NW,28.8,42.6,N/A,,Mostly Cloudy,320,2014-01-16 22:15:00
4:35 PM,37.4,12.2,36,30.02,10.0,NNW,39.1,48.3,N/A,,Overcast,330,2014-01-16 22:35:00
4:55 PM,35.6,12.2,38,30.03,10.0,NW,31.1,42.6,N/A,,Mostly Cloudy,320,2014-01-16 22:55:00
5:15 PM,35.6,12.2,38,30.04,10.0,NW,28.8,41.4,N/A,,Mostly Cloudy,320,2014-01-16 23:15:00
5:35 PM,33.8,14.0,44,30.05,10.0,NNW,24.2,36.8,N/A,,Overcast,330,2014-01-16 23:35:00
5:55 PM,33.8,17.6,52,30.06,10.0,NNW,28.8,38.0,N/A,,Mostly Cloudy,330,2014-01-16 23:55:00
6:15 PM,32.0,14.0,48,30.07,10.0,NNW,29.9,38.0,N/A,,Mostly Cloudy,330,2014-01-17 00:15:00
6:35 PM,32.0,14.0,48,30.08,10.0,NW,23.0,44.9,N/A,,Mostly Cloudy,320,2014-01-17 00:35:00
6:55 PM,30.2,14.0,51,30.09,10.0,NW,25.3,34.5,N/A,,Partly Cloudy,320,2014-01-17 00:55:00
7:15 PM,30.2,14.0,51,30.10,10.0,NW,21.9,28.8,N/A,,Scattered Clouds,320,2014-01-17 01:15:00
7:35 PM,30.2,14.0,51,30.10,10.0,NNW,28.8,33.4,N/A,,Mostly Cloudy,330,2014-01-17 01:35:00
7:55 PM,28.4,14.0,55,30.11,10.0,NNW,25.3,29.9,N/A,,Mostly Cloudy,330,2014-01-17 01:55:00
8:15 PM,28.4,12.2,51,30.12,10.0,NNW,23.0,27.6,N/A,,Mostly Cloudy,340,2014-01-17 02:15:00
8:35 PM,28.4,10.4,47,30.13,10.0,NNW,24.2,31.1,N/A,,Mostly Cloudy,330,2014-01-17 02:35:00
8:55 PM,26.6,10.4,51,30.14,10.0,NNW,24.2,33.4,N/A,,Partly Cloudy,330,2014-01-17 02:55:00
9:15 PM,26.6,10.4,51,30.15,10.0,NNW,20.7,28.8,N/A,,Clear,330,2014-01-17 03:15:00
9:35 PM,26.6,10.4,51,30.15,10.0,NNW,28.8,33.4,N/A,,Clear,330,2014-01-17 03:35:00
9:55 PM,26.6,8.6,47,30.17,10.0,NNW,20.7,31.1,N/A,,Clear,330,2014-01-17 03:55:00
10:15 PM,24.8,8.6,50,30.17,10.0,NNW,20.7,28.8,N/A,,Clear,330,2014-01-17 04:15:00
10:35 PM,24.8,8.6,50,30.17,10.0,NNW,15.0,-,N/A,,Clear,330,2014-01-17 04:35:00
10:55 PM,24.8,8.6,50,30.17,10.0,NW,15.0,20.7,N/A,,Clear,320,2014-01-17 04:55:00
11:15 PM,24.8,8.6,50,30.17,10.0,NW,12.7,18.4,N/A,,Clear,320,2014-01-17 05:15:00
11:35 PM,23.0,10.4,59,30.17,10.0,NW,15.0,-,N/A,,Clear,320,2014-01-17 05:35:00
11:55 PM,23.0,10.4,59,30.17,10.0,NW,11.5,-,N/A,,Clear,320,2014-01-17 05:55:00